Location: St. Louis
(38.6270°N, 90.1994°W)
Time: 23:33:52
(UTC-06:00)

Vanguard 1 - Pass Details

Date: 04 December 2021
Orbit: 652 x 3830 km, 34.2° (Epoch: 21 January)

Event Time Altitude Azimuth Distance (km) Brightness Sun altitude
Rises 03:32:23 0° 275° (W) 7,944 - -40.4°
Reaches altitude 10° 03:37:51 10° 274° (W) 6,936 - -39.3°
Exits shadow 03:54:24 53° 257° (WSW) 3,936 12.5 -36.1°
Maximum altitude 04:00:42 71° 196° (SSW) 3,237 12.4 -34.9°
Drops below altitude 10° 04:15:02 10° 116° (ESE) 4,645 14.2 -32.1°
Sets 04:17:54 0° 114° (ESE) 5,313 14.8 -31.5°
